Regional Weather Roundup
Issued by NWS Upton, NY

Current Version | Previous Version | Graphics & Text | Print | Product List | Glossary Off
Versions: 1 2 3 4 5 6 7 8 9 10 11 12 13 14 15 16 17 18 19 20 21 22 23 24 25 26 27 28 29 30 31 32 33 34 35 36 37 38 39 40 41 42 43 44 45 46 47 48 49 50

000
ASUS41 KOKX 262305
RWROKX

REGIONAL WEATHER ROUNDUP
NATIONAL WEATHER SERVICE NEW YORK NY
600 PM EST FRI DEC 26 2014

NOTE: "FAIR" INDICATES FEW OR NO CLOUDS BELOW 12,000 FEET WITH NO
SIGNIFICANT WEATHER AND/OR OBSTRUCTIONS TO VISIBILITY.

NYZ071-072-176-178-NJZ106-104-270000-
NEW YORK CITY METRO AREA


CITY           SKY/WX    TMP DP  RH WIND       PRES   REMARKS
CENTRAL PARK   CLEAR     47  28  47 VRB5      30.23R
LAGUARDIA APRT PTCLDY    48  28  46 W9        30.21R
KENNEDY INTL   PTCLDY    44  32  62 SW10      30.23R
NEWARK/LIBERTY PTCLDY    46  30  53 W9        30.22R
BRNX BOT. GARD   N/A    N/A N/A N/A SW1       30.20F
TETERBORO      CLEAR     46  28  49 SW6       30.21R
$$

NYZ177-179-078>081-270000-
LONG ISLAND NEW YORK

CITY           SKY/WX    TMP DP  RH WIND       PRES   REMARKS
FARMINGDALE    CLEAR     44  31  60 SW5       30.22R
ISLIP          PTCLDY    40  32  73 SW7       30.20R
SHIRLEY        CLEAR     38  29  70 CALM      30.22R
WESTHAMPTON    CLEAR     31  23  72 CALM      30.22R
MONTAUK POINT    N/A     45  33  63 W7        30.20R
$$

NYZ052-065-067-270000-
HUDSON VALLEY

CITY           SKY/WX    TMP DP  RH WIND       PRES   REMARKS
WHITE PLAINS   CLEAR     41  28  60 CALM      30.18R
NEWBURGH       NOT AVBL
MONTGOMERY     CLEAR     35  27  72 SW5       30.16S WCI  31
POUGHKEEPSIE   CLEAR     40  28  62 S3        30.17S
ALBANY         PTCLDY    35  28  75 CALM      30.16S
$$

NJZ001-105-106-008-010-013-015-019>022-104-270000-
NEW JERSEY

CITY           SKY/WX    TMP DP  RH WIND       PRES   REMARKS
NEWARK/LIBERTY PTCLDY    46  30  53 W9        30.22R
TETERBORO      CLEAR     46  28  49 SW6       30.21R
CALDWELL       CLEAR     43  28  55 VRB3      30.21R
MORRISTOWN     CLEAR     46  30  53 W5        30.22R
SOMERVILLE     CLEAR     36  30  79 CALM      30.20S
SUSSEX         CLEAR     36  28  73 CALM      30.19R
ANDOVER        NOT AVBL
TRENTON        CLEAR     42  28  57 CALM      30.22S
MILLVILLE      CLEAR     35  30  82 CALM      30.25R
ATLANTIC CITY  CLEAR     43  30  60 W3        30.25R
WRIGHTSTOWN    CLEAR     40  30  69 SW6       30.21S
TOMS RIVER     CLEAR     34  28  80 CALM      30.22F
BELMAR         CLEAR     43  27  52 W5        30.23R
$$

PAZ047>061-062-071-270000-
EASTERN PENNSYLVANIA

CITY           SKY/WX    TMP DP  RH WIND       PRES   REMARKS
PHILADELPHIA   PTCLDY    44  30  57 W6        30.25S
ALLENTOWN      CLEAR     38  28  67 SW7       30.21S WCI  33
SCRANTON       CLEAR     40  27  59 S3        30.19R
$$

CTZ002-004>006-009-010-012-RIZ004-006-007-MAZ004-011-015-270000-
SOUTHERN NEW ENGLAND
 IN CT

CITY           SKY/WX    TMP DP  RH WIND       PRES   REMARKS
BRADLEY INTL   PTCLDY    41  27  57 W6        30.16R
HARTFORD       CLEAR     41  29  62 SW5       30.18R
DANBURY        CLEAR     35  28  75 SW3       30.19R
WTRBRY/OXFORD  CLEAR     41  27  56 CALM      30.18R
BRIDGEPORT     CLEAR     44  36  73 SW3       30.20R
MERIDEN        CLEAR     36  30  79 CALM      30.19R
NEW HAVEN      CLEAR     46  36  68 SW5       30.19R
CHESTER        FAIR      41  32  70 W3        30.19R
GROTON         CLEAR     42  34  73 W9        30.19R
WILLIMANTIC    CLEAR     37  29  72 CALM      30.18R

 IN RI

CITY           SKY/WX    TMP DP  RH WIND       PRES   REMARKS
PROVIDENCE     CLEAR     41  29  62 SW6       30.16R
BLOCK ISLAND   CLEAR     45  32  61 W10G16    30.18R
WESTERLY       CLEAR     43  36  76 W7        30.19R

 IN MA

CITY           SKY/WX    TMP DP  RH WIND       PRES   REMARKS
BOSTON         CLEAR     46  29  51 W9        30.14R
WORCESTER      CLEAR     37  27  67 W8        30.13R WCI  31
WESTFIELD      CLEAR     36  27  69 CALM      30.16R
PROVINCETOWN   CLEAR     43  36  75 SW8       30.13S
NANTUCKET      CLEAR     41  37  86 W7        30.15R
$$

ANZ330-335-338-340-345-350-353-355-270000-
COASTAL MARINE OBSERVATIONS


STATION/POSITION TIME  SKY/WX   TEMP    WIND        PRES    VSBY  WAVE
                                AIR SEA DIR/SP/G                  HT/PER
                 (UTC)          (F)     (DEG/KT/KT) (MB)    (MI)  (FT/S)
NY HARB ENTRANCE 2300            45 45  260/  4/  4 1024.2          1/12
4S FIRE IS       2300               47                N/A           3/ 4
20S FIRE ISLAND  2200            46 49              1023.4          2/ 9
23SW MTP         2300                                 N/A           3/ 9
HUDSON CANYON    2300            47 55  280/ 14/ 17 1023.6          4/ 5
EXECUTION ROCKS  2300            45 42  240/  6/  8   N/A
WESTERN LI SOUND 2300            45     220/  6/  8   N/A           0
CENTRAL LI SOUND 2200            45 44  240/ 12/ 14   N/A           1/ 2
EASTERN LI SOUND NOT AVBL
ROBBINS REEF     2300            46                 1022.1
$$


>>>>>>>>>>>>>>>>>>>>>>>>>>>> KEY <<<<<<<<<<<<<<<<<<<<<<<<<<<
>                                                          <
>     SKY/WX - SKY CONDITION/PRESENT WEATHER               <
>     TMP    - TEMPERATURE IN FAHRENHEIT                   <
>     DP     - DEWPOINT IN FAHRENHEIT                      <
>     RH     - RELATIVE HUMIDITY IN PERCENT                <
>     WIND   - DIRECTION AND SPEED IN MPH                  <
>     PRES   - MEAN SEA LEVEL PRESSURE IN INCHES OF HG     <
>     WCI    - WIND CHILL INDEX                            <
>     VSB    - VISIBILITY IN MILES                         <
>     HX     - HEAT INDEX                                  <
>     TC     - TEMPERATURE IN CELSIUS                      <
>     VRB    - VARIABLE WIND DIRECTION                     <
>                                                          <
>>>>>>>>>>>>>>>>>>>>>>>>>>>> KEY <<<<<<<<<<<<<<<<<<<<<<<<<<<




USA.gov is the U.S. government's official web portal to all federal, state and local government web resources and services.